Theta_e
288 288 288 287 287 287 288 289 291 291 291 291 291 293 294 294 294 295 295 295 295 297
287 286 286 286 287 287 288 290 291 291 291 291 291 291 291 291 290 291 292 293 296 296
285 285 286 287 287 288 289 288 288 288 289 289 290 291 290 290 290 291 291 293 292 294
284 285 285 286 286 286 286 286 286 286 286 287 287 288 289 289 290 289 290 290 292 292
284 284 284 284 285 285 284 285 284 285 285 286 286 287 287 287 288 289 289 290 291 291
283 282 283 284 284 284 284 284 284 285 284 284 285 285 285 286 286 287 288 290 290 291
282 282 283 284 284 284 284 283 283 284 284 284 284 284 284 285 285 285 286 288 289 290
282 283 283 283 284 284 283 283 283 283 283 283 283 284 284 285 285 285 285 286 287 289
283 283 283 282 283 283 283 282 282 282 281 281 283 286 288 286 284 283 284 284 285 286
282 282 282 282 282 282 282 282 280 280 281 279 281 287 286 285 283 281 281 284 284 284
281 281 282 282 281 281 282 280 280 280 281 279 280 286 285 283 281 281 281 283 285 285
280 281 281 281 281 280 279 280 281 282 282 280 279 284 284 281 280 280 280 282 284 286
281 281 281 281 281 278 276 280 282 282 282 281 279 283 283 280 278 277 280 281 281 286
282 282 282 282 277 277 277 279 281 281 282 281 280 280 284 283 277 276 276 278 281 282
Wind_Speed
8 7 9 10 10 10 10 11 13 13 15 16 16 14 12 12 13 14 14 17 13 12
7 9 10 12 12 10 13 12 15 17 16 16 16 16 17 13 16 17 15 14 13 12
9 9 10 10 15 14 13 15 16 17 17 18 17 17 18 15 15 16 15 12 15 15
8 10 10 11 12 14 16 16 16 19 18 18 19 18 18 19 19 19 17 19 16 17
9 9 10 11 13 13 15 17 18 19 18 19 19 18 18 19 19 20 19 19 19 19
8 10 11 13 14 16 16 17 17 17 17 18 19 19 18 18 19 19 20 18 19 18
8 10 12 13 14 14 14 16 17 17 17 18 18 19 19 18 18 19 18 19 19 17
9 11 12 13 14 13 14 15 16 16 16 18 18 14 17 17 16 17 18 18 18 17
9 11 11 14 13 13 14 15 15 15 17 21 16 30 25 18 12 14 17 18 17 16
9 10 11 12 13 13 14 14 13 15 16 20 22 29 26 25 11 11 11 15 15 16
8 8 11 12 12 13 10 11 12 15 16 17 17 34 30 28 15 11 11 7 13 15
7 7 11 11 12 11 9 10 12 14 16 15 16 34 34 25 14 14 14 12 2 11
5 6 9 9 9 9 6 8 10 14 15 18 18 28 35 27 13 17 13 16 18 12
3 4 6 8 4 6 7 6 10 12 14 17 18 20 33 34 16 14 15 15 16 19
Wind_Direction
286 293 296 293 290 293 299 294 298 290 285 286 286 278 270 262 255 247 243 242 239 245
291 304 300 300 302 302 296 295 294 298 293 285 278 269 267 260 258 259 261 260 260 247
304 292 295 304 311 306 304 305 301 300 295 291 287 279 266 258 256 256 252 244 243 244
301 305 311 314 312 312 312 307 303 303 301 295 290 285 278 273 263 249 251 251 242 238
307 313 318 316 314 314 309 310 308 305 297 294 291 288 281 275 270 267 252 244 240 240
317 320 316 318 318 318 315 314 305 301 302 303 296 289 280 274 269 265 260 250 242 238
316 320 321 320 320 315 317 312 312 309 306 303 299 294 285 277 269 263 257 253 244 239
317 324 321 323 318 318 321 317 312 312 315 315 311 302 292 279 270 260 252 246 244 239
328 329 322 328 324 326 323 323 318 327 331 331 316 309 307 304 294 274 261 247 232 232
334 329 326 326 326 327 330 327 332 341 338 332 324 340 347 341 307 296 281 244 222 223
333 335 331 334 334 333 331 332 341 344 332 331 332 354 3 354 335 326 331 321 217 211
329 342 338 338 338 326 323 341 354 344 331 338 346 4 14 3 350 352 355 1 290 200
326 348 334 327 332 317 299 345 357 358 353 353 350 360 20 19 3 1 7 28 32 58
333 347 312 314 304 312 308 359 7 7 2 1 2 359 18 28 17 15 16 23 45 50